STARLINK-4378 (53476 NORAD) Tracking and Keplerian Element Data

This shows tracking and keplerian element data for the satellite.

Feedback or suggestion? Click here.




ElementValue
Catalog53476
NameSTARLINK-4378
Epoch Orbit1521
Epoch Day324.83977924
Epoch Year2022
RAAN83.8826
Inclination97.654
Eccentricity8.1E-05
Argument of Perigee253.7515
Mean Anonmoly106.362
Mean Motion15.0126405
Decay Rate2.263E-05
L11 53476U 22099M 22324.83977924 .00002263 00000+0 18069-3 0 9998
L22 53476 97.6540 83.8826 0000810 253.7515 106.3620 15.01264050 15211



Live tracking and technical data element details for STARLINK-4378 (NORAD 53476). STARLINK-4378 can be tracked NOW for your location showing map with azimuth and elevation plus other details from your city location.







IsCatalogInMostPopularTable: catalog: 53476, numindb: 6
Update: records affected: 1



GetName: 53476 STARLINK-4378

Hit Count: updated at: Thu, 08 Dec 2022 20:48:54 GMT